Weather History for Clinton-Sherman, OK

Change the Weather History Date:

Wednesday, May 8, 2013

  Actual Average Record
Temperature  
Mean Temperature 72 °F -  
Max Temperature 84 °F 77 °F 104 °F (2011)
Min Temperature 59 °F 53 °F 48 °F (1999)
Cooling Degree Days 6    
Growing Degree Days 22 (Base 50)    
Moisture  
Dew Point 55 °F    
Average Humidity 57    
Maximum Humidity 87    
Minimum Humidity 40    
Precipitation  
Precipitation 0.00 in - - ()
Sea Level Pressure  
Sea Level Pressure 29.81 in    
Wind  
Wind Speed 18 mph (South)    
Max Wind Speed 23 mph    
Max Gust Speed 30 mph    
Visibility 10 miles    
Events      
Averages and records for this station are not official NWS values.
T = Trace of Precipitation, MM = Missing Value Source: NWS Daily Summary

Daily Weather History Graph

Daily Weather History Graph

Search for Another Location

Airport:

Trip Planner

Search our weather history database for the weather conditions in past years. The results will help you decide how hot, cold, wet, or windy it might be!

Date:

Astronomy

May. 08, 2013 Rise Set
Actual Time 6:38 AM CDT 8:28 PM CDT
Civil Twilight 6:10 AM CDT 8:56 PM CDT
Nautical Twilight 5:36 AM CDT 9:30 PM CDT
Astronomical Twilight 5:01 AM CDT 10:06 PM CDT
Moon 5:44 AM CDT (5/8) 7:30 PM CDT (5/8)
Length of Visible Light 14h 46m
Length of Day
13h 50m
Waning Crescent, 2% of the Moon is Illuminated
May 8
Waning Crescent
May 9
New
May 17
First Quarter
May 24
Full
May 31
Last Quarter

Hourly Weather History & Observations

Time (CDT) Temp. Heat Index Dew Point Humidity Pressure Visibility Wind Dir Wind Speed Gust Speed Precip Events Conditions
12:53 AM 68.0 °F - 48.0 °F 49% 29.86 in 10.0 mi SSE 21.9 mph 27.6 mph N/A   Clear
1:53 AM 66.9 °F - 48.0 °F 51% 29.85 in 10.0 mi SSE 20.7 mph 27.6 mph N/A   Clear
2:53 AM 64.9 °F - 48.0 °F 54% 29.83 in 10.0 mi South 17.3 mph 25.3 mph N/A   Clear
3:53 AM 64.0 °F - 48.0 °F 56% 29.81 in 10.0 mi South 15.0 mph - N/A   Clear
4:53 AM 63.0 °F - 48.0 °F 58% 29.81 in 10.0 mi South 18.4 mph - N/A   Clear
5:53 AM 61.0 °F - 48.9 °F 64% 29.82 in 10.0 mi South 18.4 mph - N/A   Clear
6:53 AM 59.0 °F - 48.9 °F 69% 29.83 in 10.0 mi South 12.7 mph - N/A   Clear
7:53 AM 62.1 °F - 50.0 °F 65% 29.84 in 10.0 mi South 17.3 mph - N/A   Clear
8:53 AM 66.0 °F - 52.0 °F 60% 29.85 in 10.0 mi South 16.1 mph 24.2 mph N/A   Clear
9:53 AM 72.0 °F - 53.1 °F 51% 29.86 in 10.0 mi South 13.8 mph 23.0 mph N/A   Clear
10:53 AM 75.9 °F - 57.9 °F 54% 29.86 in 10.0 mi SSW 23.0 mph 29.9 mph N/A   Clear
11:53 AM 80.1 °F 80.6 °F 57.9 °F 47% 29.85 in 10.0 mi SSW 19.6 mph 27.6 mph N/A   Clear
12:53 PM 82.0 °F 82.0 °F 57.9 °F 44% 29.83 in 10.0 mi SSW 18.4 mph 25.3 mph N/A   Clear
1:53 PM 84.0 °F 83.5 °F 57.9 °F 41% 29.82 in 10.0 mi South 20.7 mph 27.6 mph N/A   Clear
2:53 PM 84.9 °F 84.2 °F 57.9 °F 40% 29.80 in 10.0 mi South 17.3 mph 26.5 mph N/A   Clear
3:53 PM 84.9 °F 84.4 °F 59.0 °F 41% 29.77 in 10.0 mi South 12.7 mph 27.6 mph N/A   Partly Cloudy
4:53 PM 84.9 °F 84.4 °F 59.0 °F 41% 29.74 in 10.0 mi SSW 20.7 mph 29.9 mph N/A   Clear
5:53 PM 80.1 °F 80.7 °F 59.0 °F 48% 29.75 in 10.0 mi South 15.0 mph 24.2 mph N/A   Clear
6:53 PM 78.1 °F - 60.1 °F 54% 29.77 in 10.0 mi SSW 19.6 mph 29.9 mph N/A   Clear
7:53 PM 73.0 °F - 60.1 °F 64% 29.71 in 10.0 mi SSW 11.5 mph - 0.00 in   Scattered Clouds
8:53 PM 72.0 °F - 59.0 °F 64% 29.75 in 10.0 mi South 10.4 mph - N/A   Clear
9:53 PM 68.0 °F - 59.0 °F 73% 29.78 in 10.0 mi East 6.9 mph - N/A   Clear
10:53 PM 64.9 °F - 59.0 °F 81% 29.81 in 10.0 mi SE 10.4 mph - N/A   Clear
11:53 PM 63.0 °F - 59.0 °F 87% 29.79 in 10.0 mi SSE 10.4 mph - N/A   Clear